Location: Byhalia Creek
(34.8270°N, 89.8040°W)
Time: 08:49:05
(UTC+00:00)

ATLAS 3B R/B - Pass Details

Date: 22 April 2026
Orbit: 937 x 1257 km, 63.8° (Epoch: 15 May)

Event Time Altitude Azimuth Distance (km) Brightness Sun altitude
Rises 06:43:26 0° 331° (NNW) 4,183 6.3 -41.7°
Reaches altitude 10° 06:46:19 10° 334° (NNW) 3,189 5.6 -41.6°
Enters shadow 06:50:57 39° 346° (NNW) 1,719 3.9 -41.3°
